This demonstration page uses our WeatherBlox Daily Observations layout. Learn more.

Left ArrowRight Arrow

38.89511, -77.03637

Hourly Observations for August 7, 2017

Temp ( °F °C ) Dew Point ( °F °C ) Humidity (%) Winds ( mph kmh ) Pressure ( in mb ) Visibility ( mi km ) Precip ( " mm )
12:52 am 00:52 Cloudy with Light Rain 76 24.4 65 18.3 69 69 S 9 15 30.11 1020 10 16 0.00 0.03
1:52 am 01:52 Cloudy with Light Rain 74 23.3 65 18.3 74 74 S 10 17 30.10 1019 10 16 0.00 0.03
2:52 am 02:52 Cloudy with Light Rain 72 22.2 67 19.4 84 84 SSE 6 9 30.09 1019 10 16 0.01 0.25
3:52 am 03:52 Cloudy with Light Rain 71 21.7 68 20 90 90 E 5 7 30.06 1018 10 16 0.04 1.02
4:30 am 04:30 Cloudy 71 21.7 67 19.4 87 87 ESE 3 6 30.06 1018 10 16 0.00 0.03
4:52 am 04:52 Cloudy 71 21.7 66 18.9 84 84 SE 3 6 30.05 1018 10 16 0.00 0.03
5:52 am 05:52 Cloudy with Light Rain 71 21.7 66 18.9 84 84 Calm 30.05 1018 10 16 0.01 0.25
6:52 am 06:52 Cloudy with Light Rain 72 22.2 67 19.4 84 84 Calm 30.04 1017 10 16 0.00 0.03
7:19 am 07:19 Cloudy with Heavy Rain 71 21.7 68 20 90 90 Calm 30.06 1018 3 5 0.03 0.76
7:22 am 07:22 Cloudy with Heavy Rain 71 21.7 68 20 90 90 Calm 30.06 1018 2 3 0.06 1.52
7:32 am 07:32 Cloudy with Light Rain 70 21.1 69 20.6 97 97 NE 5 7 30.03 1017 4 6 0.23 5.84
7:37 am 07:37 Mostly Cloudy with Light Rain 70 21.1 69 20.6 97 97 ENE 5 7 30.03 1017 7 11 0.23 5.84
7:52 am 07:52 Mostly Cloudy 71 21.7 69 20.6 94 94 NNE 3 6 30.04 1017 10 16 0.23 5.84
8:25 am 08:25 Cloudy 71 21.7 69 20.6 94 94 ENE 6 9 30.03 1017 10 16 0.00 0.00
8:52 am 08:52 Cloudy with Light Rain 71 21.7 69 20.6 94 94 NE 5 7 30.02 1017 10 16 0.00 0.03
9:52 am 09:52 Cloudy with Light Rain 72 22.2 70 21.1 94 94 NE 5 7 30.00 1016 10 16 0.00 0.03
10:20 am 10:20 Cloudy with Light Rain 72 22.2 70 21.1 94 94 NE 5 7 30.00 1016 5 8 0.02 0.51
10:52 am 10:52 Cloudy with Light Rain 72 22.2 70 21.1 94 94 NNE 9 15 29.99 1016 6 10 0.05 1.27
11:02 am 11:02 Cloudy with Light Rain 72 22.2 70 21.1 94 94 NE 9 15 30.00 1016 6 10 0.01 0.25
11:34 am 11:34 Cloudy with Rain 72 22.2 71 21.7 97 97 N 7 11 30.00 1016 5 8 0.05 1.27
11:52 am 11:52 Cloudy with Rain 72 22.2 71 21.7 97 97 NE 7 11 29.98 1015 3 5 0.09 2.29
12:04 pm 12:04 Cloudy with Heavy Rain 72 22.2 71 21.7 97 97 NE 7 11 29.97 1015 3 4 0.06 1.52
12:07 pm 12:07 Cloudy with Heavy Rain 72 22.2 71 21.7 97 97 NE 7 11 29.97 1015 3 4 0.08 2.03
12:17 pm 12:17 Cloudy with Rain 72 22.2 71 21.7 97 97 NNE 8 13 29.97 1015 3 4 0.14 3.56
12:21 pm 12:21 Cloudy with Rain 72 22.2 71 21.7 97 97 NNE 9 15 29.97 1015 4 6 0.15 3.81
12:34 pm 12:34 Cloudy with Heavy Rain 72 22.2 71 21.7 97 97 NNE 7 11 29.97 1015 3 4 0.20 5.08
12:52 pm 12:52 Cloudy with Heavy Rain 72 22.2 71 21.7 97 97 ENE 9 15 29.95 1014 3 4 0.30 7.62
1:04 pm 13:04 Cloudy with Rain 72 22.2 71 21.7 97 97 ENE 10 17 29.94 1014 4 6 0.04 1.02
1:13 pm 13:13 Cloudy with Rain 72 22.2 71 21.7 97 97 ENE 10 17 29.94 1014 3 5 0.08 2.03
1:16 pm 13:16 Cloudy with Heavy Rain 72 22.2 71 21.7 97 97 ENE 9 15 29.94 1014 2 3 0.10 2.54
1:19 pm 13:19 Cloudy with Heavy Rain 72 22.2 71 21.7 97 97 ENE 10 17 29.94 1014 2 2 0.15 3.81
1:34 pm 13:34 Cloudy with Light Rain 72 22.2 71 21.7 97 97 ENE 12 19 29.94 1014 3 5 0.33 8.38
1:52 pm 13:52 Cloudy with Light Rain 72 22.2 71 21.7 97 97 NE 10 17 29.92 1013 5 8 0.35 8.89
2:04 pm 14:04 Cloudy with Light Rain 72 22.2 71 21.7 97 97 NE 13 20 29.91 1013 10 16 0.00 0.03
2:21 pm 14:21 Cloudy with Rain 72 22.2 71 21.7 97 97 NNE 12 19 29.91 1013 4 6 0.01 0.25
2:25 pm 14:25 Cloudy with Heavy Rain 72 22.2 71 21.7 97 97 N 12 19 29.91 1013 2 3 0.03 0.76
2:30 pm 14:30 Cloudy with Heavy Rain 72 22.2 71 21.7 97 97 NNE 12 19 29.91 1013 1 1 0.15 3.81
2:32 pm 14:32 Cloudy with Heavy Rain 72 22.2 71 21.7 97 97 NNE 14 22 29.91 1013 1 1 0.22 5.59
2:36 pm 14:36 Cloudy with Heavy Rain 72 22.2 71 21.7 97 97 N 13 20 29.91 1013 3 4 0.31 7.87
2:44 pm 14:44 Cloudy with Light Rain 72 22.2 72 22.2 100 100 N 13 20 29.91 1013 4 6 0.32 8.13
2:46 pm 14:46 Cloudy with Light Rain 72 22 72 22 100 100 N 12 19 29.91 1013 2 3 0.33 8.38
2:52 pm 14:52 Cloudy with Heavy Rain 72 22.2 72 22.2 100 100 NNE 12 19 29.91 1013 2 3 0.36 9.14
2:56 pm 14:56 Cloudy with Light Rain 72 22.2 72 22.2 100 100 NNE 12 19 29.91 1013 3 5 0.01 0.25
3:03 pm 15:03 Cloudy with Light Rain 72 22.2 72 22.2 100 100 NE 12 19 29.91 1013 10 16 0.02 0.51
3:14 pm 15:14 Cloudy with Light Rain 72 22.2 71 21.7 97 97 NNE 9 15 29.91 1013 5 8 0.02 0.51
3:43 pm 15:43 Cloudy with Light Rain 73 22.8 72 22.2 96 96 NNE 7 11 29.91 1013 9 14 0.02 0.51
3:48 pm 15:48 Cloudy 73 23 72 22 94 94 NNE 5 7 29.91 1013 10 16 0.02 0.51
3:52 pm 15:52 Cloudy 73 22.8 72 22.2 96 96 NE 6 9 29.89 1012 10 16 0.02 0.51
4:23 pm 16:23 Cloudy 73 22.8 71 21.7 94 94 NE 6 9 29.91 1013 10 16 0.00 0.03
4:52 pm 16:52 Cloudy 73 22.8 71 21.7 94 94 NNE 8 13 29.90 1012 10 16 0.00 0.03
5:42 pm 17:42 Cloudy 74 23.3 71 21.7 91 91 NNE 8 13 29.91 1013 10 16 0.00 0.00
5:52 pm 17:52 Cloudy 74 23.3 72 22.2 94 94 NNE 7 11 29.91 1013 10 16 0.00 0.00
6:36 pm 18:36 Cloudy 74 23.3 71 21.7 91 91 NNE 10 17 29.91 1013 10 16 0.00 0.00
6:39 pm 18:39 Cloudy 73 22.8 70 21.1 90 90 NNE 12 19 29.91 1013 9 14 0.00 0.00
6:43 pm 18:43 Cloudy 73 22.8 70 21.1 90 90 NE 12 19 29.91 1013 9 14 0.00 0.00
6:52 pm 18:52 Cloudy with Light Rain 72 22.2 69 20.6 91 91 NNE 12 19 29.91 1013 6 10 0.00 0.03
7:10 pm 19:10 Cloudy 72 22.2 70 21.1 94 94 NNE 8 13 29.91 1013 7 11 0.00 0.03
7:12 pm 19:12 Cloudy with Mist and Fog 72 22.2 70 21.1 94 94 N 8 13 29.91 1013 6 10 0.00 0.03
7:14 pm 19:14 Cloudy with Drizzle 72 22.2 70 21.1 94 94 N 7 11 29.91 1013 6 10 0.00 0.03
7:17 pm 19:17 Cloudy with Drizzle 72 22.2 70 21.1 94 94 N 7 11 29.91 1013 6 10 0.00 0.03
7:37 pm 19:37 Cloudy 72 22.2 71 21.7 97 97 NNE 6 9 29.91 1013 10 16 0.00 0.03
7:52 pm 19:52 Cloudy 73 22.8 71 21.7 94 94 NE 5 7 29.90 1013 10 16 0.00 0.03
8:24 pm 20:24 Cloudy 73 22.8 71 21.7 94 94 NNE 7 11 29.91 1013 10 16 0.00 0.00
8:52 pm 20:52 Mostly Cloudy 73 22.8 70 21.1 90 90 NNE 7 11 29.90 1013 10 16 0.00 0.00
8:54 pm 20:54 Mostly Cloudy 73 22.8 70 21.1 90 90 NNE 6 9 29.91 1013 10 16 0.00 0.00
9:52 pm 21:52 Mostly Cloudy 73 22.8 71 21.7 94 94 N 6 9 29.92 1013 10 16 0.00 0.00
9:59 pm 21:59 Cloudy 73 22.8 70 21.1 90 90 NNW 5 7 29.91 1013 10 16 0.00 0.00
10:16 pm 22:16 Mostly Cloudy 73 22.8 70 21.1 90 90 NE 5 7 29.91 1013 10 16 0.00 0.00
10:24 pm 22:24 Mostly Cloudy 73 22.8 70 21.1 90 90 NE 7 11 29.91 1013 10 16 0.00 0.00
10:52 pm 22:52 Cloudy 73 22.8 70 21.1 90 90 NNE 6 9 29.93 1014 10 16 0.00 0.00
11:10 pm 23:10 Cloudy 73 22.8 70 21.1 90 90 NNE 5 7 29.94 1014 10 16 0.00 0.00
11:34 pm 23:34 Cloudy with Light Rain 72 22.2 70 21.1 94 94 N 6 9 29.94 1014 7 11 0.01 0.25
11:52 pm 23:52 Cloudy with Light Rain 72 22.2 70 21.1 94 94 N 7 11 29.93 1014 7 11 0.01 0.25

Powered by AerisWeather